Date String (YYYY-MM-DD hh:mm:ss) UTC,Instrument flags,Ambient pressure (hPa),Sample flow (lpm),Bypass flow (lpm),Sample temperature (°C),Ambient temperature (°C),ASC tube jacket temperature (°C),LED temperature (°C),Box temperature (°C),Sample RH (%),Span deviation,Mass concentration (μg/m³),Mass concentration (μg/m³),Mass concentration (μg/m³)
DateTimeUTC,F1_M11,P_M11,Q1_M11,Q2_M11,T1_M11,T2_M11,T3_M11,T4_M11,T5_M11,U1_M11,ZSPAN_M11,X2_M11,X0_M11,X1_M11
2023-02-04 10:00:00,,0823.7,4.96,0.00,23.7,22.4,00.0,32.5,25.5,05.0,0000.0,0001.72,0005.11,0000.53
2023-02-04 10:01:00,,0823.7,5.04,0.00,23.7,22.4,00.0,32.5,25.5,05.2,0000.0,0001.67,0004.97,0000.53
2023-02-04 10:02:00,,0823.7,5.00,0.00,23.7,22.4,00.0,32.5,25.5,05.2,0000.0,0001.60,0004.73,0000.53
2023-02-04 10:03:00,,0823.8,4.95,0.00,23.7,22.5,00.0,32.5,25.5,05.5,0000.0,0001.52,0003.85,0000.53
2023-02-04 10:04:00,,0823.8,5.02,0.00,23.7,22.5,00.0,32.5,25.5,05.3,0000.0,0001.48,0003.42,0000.53
2023-02-04 10:05:00,,0823.8,5.01,0.00,23.7,22.4,00.0,32.5,25.5,05.2,0000.0,0001.43,0003.16,0000.53
2023-02-04 10:06:00,,0823.9,4.99,0.00,23.7,22.4,00.0,32.5,25.5,04.9,0000.0,0001.41,0003.17,0000.53
2023-02-04 10:07:00,,0823.7,4.96,0.00,23.7,22.4,00.0,32.5,25.5,04.6,0000.0,0001.46,0003.35,0000.54
2023-02-04 10:08:00,,0823.7,5.03,0.00,23.7,22.4,00.0,32.5,25.5,04.3,0000.0,0001.46,0003.44,0000.54
2023-02-04 10:09:00,,0823.7,5.04,0.00,23.7,22.3,00.0,32.6,25.6,04.3,0000.0,0001.46,0003.47,0000.54
2023-02-04 10:10:00,,0823.7,4.96,0.00,23.7,22.3,00.0,32.6,25.5,04.2,0000.0,0001.42,0003.46,0000.53
2023-02-04 10:11:00,,0823.7,5.01,0.00,23.7,22.3,00.0,32.5,25.5,04.2,0000.0,0001.37,0003.34,0000.52
2023-02-04 10:12:00,,0823.7,5.03,0.00,23.7,22.3,00.0,32.5,25.5,04.5,0000.0,0001.48,0003.63,0000.53
2023-02-04 10:13:00,,0823.7,4.98,0.00,23.7,22.3,00.0,32.5,25.5,04.6,0000.0,0001.53,0003.73,0000.55
2023-02-04 10:14:00,,0823.7,4.98,0.00,23.7,22.3,00.0,32.5,25.5,04.7,0000.0,0001.58,0003.84,0000.56
2023-02-04 10:15:00,,0823.7,5.04,0.00,23.7,22.4,00.0,32.5,25.5,04.7,0000.0,0001.63,0004.31,0000.57
2023-02-04 10:16:00,,0823.7,4.99,0.00,23.7,22.3,00.0,32.5,25.5,04.6,0000.0,0001.71,0004.68,0000.58
2023-02-04 10:17:00,,0823.7,4.96,0.00,23.7,22.3,00.0,32.5,25.5,04.5,0000.0,0001.75,0004.86,0000.59
2023-02-04 10:18:00,,0823.7,5.02,0.00,23.7,22.3,00.0,32.5,25.4,04.8,0000.0,0001.76,0004.94,0000.59
2023-02-04 10:19:00,,0823.7,5.01,0.00,23.7,22.3,00.0,32.5,25.4,04.8,0000.0,0001.82,0005.17,0000.60
2023-02-04 10:20:00,,0823.6,4.95,0.00,23.7,22.3,00.0,32.5,25.5,04.8,0000.0,0001.86,0005.91,0000.60
2023-02-04 10:21:00,,0823.6,5.01,0.00,23.7,22.4,00.0,32.5,25.5,04.9,0000.0,0001.89,0006.73,0000.61
2023-02-04 10:22:00,,0823.6,5.03,0.00,23.7,22.4,00.0,32.5,25.5,04.7,0000.0,0001.93,0006.83,0000.61
2023-02-04 10:23:00,,0823.6,4.98,0.00,23.7,22.4,00.0,32.5,25.5,04.5,0000.0,0001.90,0006.66,0000.61
2023-02-04 10:24:00,,0823.7,4.98,0.00,23.7,22.4,00.0,32.5,25.5,04.5,0000.0,0001.94,0006.78,0000.60
2023-02-04 10:25:00,,0823.6,5.04,0.00,23.7,22.4,00.0,32.5,25.5,04.6,0000.0,0001.94,0006.79,0000.60
2023-02-04 10:26:00,,0823.6,4.98,0.00,23.7,22.4,00.0,32.5,25.5,04.7,0000.0,0001.97,0006.72,0000.60
2023-02-04 10:27:00,,0823.6,4.98,0.00,23.7,22.4,00.0,32.5,25.5,04.7,0000.0,0002.00,0006.69,0000.60
2023-02-04 10:28:00,,0823.6,5.03,0.00,23.7,22.4,00.0,32.5,25.5,04.9,0000.0,0002.01,0006.80,0000.59
2023-02-04 10:29:00,,0823.6,5.00,0.00,23.7,22.5,00.0,32.5,25.5,05.1,0000.0,0002.00,0006.98,0000.60
2023-02-04 10:30:00,,0823.6,4.97,0.00,23.7,22.5,00.0,32.6,25.6,04.7,0000.0,0001.92,0007.25,0000.60
2023-02-04 10:31:00,,0823.4,5.03,0.00,23.7,22.5,00.0,32.6,25.6,04.4,0000.0,0001.87,0006.48,0000.60
2023-02-04 10:32:00,,0823.3,5.00,0.00,23.7,22.5,00.0,32.6,25.5,04.4,0000.0,0001.86,0005.71,0000.59
2023-02-04 10:33:00,,0823.3,4.97,0.00,23.8,22.5,00.0,32.6,25.5,04.5,0000.0,0001.85,0005.69,0000.59
2023-02-04 10:34:00,,0823.4,5.02,0.00,23.8,22.5,00.0,32.6,25.6,04.4,0000.0,0001.86,0005.76,0000.58
2023-02-04 10:35:00,,0823.4,5.03,0.00,23.8,22.5,00.0,32.6,25.6,04.5,0000.0,0001.75,0005.53,0000.58
2023-02-04 10:36:00,,0823.3,4.95,0.00,23.8,22.5,00.0,32.6,25.6,04.5,0000.0,0001.71,0005.40,0000.58
2023-02-04 10:37:00,,0823.4,5.02,0.00,23.8,22.5,00.0,32.6,25.6,04.6,0000.0,0001.67,0005.23,0000.58
2023-02-04 10:38:00,,0823.5,5.02,0.00,23.8,22.5,00.0,32.6,25.6,04.6,0000.0,0001.64,0005.36,0000.58
2023-02-04 10:39:00,,0823.4,4.94,0.00,23.8,22.5,00.0,32.6,25.6,04.6,0000.0,0001.57,0005.12,0000.57
2023-02-04 10:40:00,,0823.5,5.04,0.00,23.8,22.5,00.0,32.6,25.5,04.6,0000.0,0001.56,0004.78,0000.56
2023-02-04 10:41:00,,0823.6,5.02,0.00,23.8,22.4,00.0,32.6,25.6,04.6,0000.0,0001.63,0004.42,0000.55
2023-02-04 10:42:00,,0823.6,4.96,0.00,23.8,22.4,00.0,32.6,25.6,04.4,0000.0,0001.68,0004.38,0000.55
2023-02-04 10:43:00,,0823.6,5.01,0.00,23.8,22.4,00.0,32.6,25.6,04.4,0000.0,0001.73,0004.89,0000.55
2023-02-04 10:44:00,,0823.7,5.03,0.00,23.8,22.5,00.0,32.6,25.6,04.9,0000.0,0001.82,0005.42,0000.55
2023-02-04 10:45:00,,0823.6,4.96,0.00,23.8,22.5,00.0,32.6,25.6,04.8,0000.0,0001.77,0005.30,0000.56
2023-02-04 10:46:00,,0823.6,5.01,0.00,23.8,22.5,00.0,32.6,25.6,04.6,0000.0,0001.83,0005.45,0000.56
2023-02-04 10:47:00,,0823.7,5.02,0.00,23.8,22.5,00.0,32.6,25.6,04.5,0000.0,0001.89,0005.89,0000.56
2023-02-04 10:48:00,,0823.7,4.98,0.00,23.8,22.5,00.0,32.6,25.6,04.6,0000.0,0001.91,0005.99,0000.56
2023-02-04 10:49:00,,0823.7,4.99,0.00,23.8,22.3,00.0,32.6,25.5,04.8,0000.0,0001.87,0005.54,0000.56
2023-02-04 10:50:00,,0823.8,5.03,0.00,23.7,22.2,00.0,32.6,25.5,05.1,0000.0,0001.85,0005.56,0000.55
2023-02-04 10:51:00,,0823.7,4.99,0.00,23.7,22.2,00.0,32.6,25.5,05.0,0000.0,0001.80,0005.65,0000.56
2023-02-04 10:52:00,,0823.7,4.98,0.00,23.7,22.2,00.0,32.6,25.5,05.0,0000.0,0001.71,0005.40,0000.55
2023-02-04 10:53:00,,0823.8,5.03,0.00,23.7,22.3,00.0,32.6,25.5,05.2,0000.0,0001.67,0005.36,0000.55
2023-02-04 10:54:00,,0823.9,4.99,0.00,23.7,22.3,00.0,32.6,25.5,05.2,0000.0,0001.62,0005.45,0000.55
2023-02-04 10:55:00,,0823.9,4.96,0.00,23.7,22.3,00.0,32.6,25.5,04.9,0000.0,0001.60,0005.10,0000.56
2023-02-04 10:56:00,,0823.9,5.03,0.00,23.7,22.2,00.0,32.6,25.5,05.0,0000.0,0001.59,0005.14,0000.56
2023-02-04 10:57:00,,0824.0,5.04,0.00,23.7,22.3,00.0,32.6,25.5,05.1,0000.0,0001.53,0004.90,0000.56
2023-02-04 10:58:00,,0824.0,4.94,0.00,23.7,22.3,00.0,32.6,25.5,05.0,0000.0,0001.46,0004.40,0000.55
2023-02-04 10:59:00,,0824.0,5.02,0.00,23.7,22.3,00.0,32.6,25.4,05.3,0000.0,0001.43,0005.01,0000.55
